Location: Newark
(45.8667°N, 9.7333°E)
Time: 00:35:04
(UTC+00:00)

Vanguard 2 Rocket - Pass Details

Date: 31 January 2020
Orbit: 553 x 3327 km, 32.9° (Epoch: 26 February)

Event Time Altitude Azimuth Distance (km) Brightness Sun altitude
Rises 03:54:10 0° 234° (SW) 2,715 - -29.8°
Reaches altitude 10° 03:57:03 10° 209° (SSW) 1,846 - -29.3°
Maximum altitude 03:59:28 15° 172° (S) 1,621 - -28.9°
Exits shadow 04:00:13 15° 160° (SSE) 1,689 8.4 -28.8°
Drops below altitude 10° 04:02:09 10° 135° (SE) 2,110 9.2 -28.4°
Sets 04:05:51 0° 113° (ESE) 3,367 10.8 -27.8°
